Weather History for Rayong, Thailand

Change the Weather History Date:

Wednesday, February 6, 2013

  Actual Average Record
Temperature  
Mean Temperature 81 °F -  
Max Temperature 87 °F 87 °F 95 °F (2000)
Min Temperature 75 °F 73 °F 68 °F (2000)
Cooling Degree Days 16    
Growing Degree Days 31 (Base 50)    
Moisture  
Dew Point 74 °F    
Average Humidity 76    
Maximum Humidity 94    
Minimum Humidity 58    
Precipitation  
Precipitation 0.00 in - - ()
Sea Level Pressure  
Sea Level Pressure 29.89 in    
Wind  
Wind Speed 4 mph ()    
Max Wind Speed 9 mph    
Max Gust Speed -    
Visibility 3.0 miles    
Events      
Averages and records for this station are not official NWS values.
T = Trace of Precipitation, MM = Missing Value Source: Averaged Metar Reports

Daily Weather History Graph

Daily Weather History Graph

Search for Another Location

Airport:

Trip Planner

Search our weather history database for the weather conditions in past years. The results will help you decide how hot, cold, wet, or windy it might be!

Date:

Astronomy

Feb. 06, 2013 Rise Set
Actual Time 6:40 AM ICT 6:19 PM ICT
Civil Twilight 6:19 AM ICT 6:41 PM ICT
Nautical Twilight 5:53 AM ICT 7:06 PM ICT
Astronomical Twilight 5:28 AM ICT 7:31 PM ICT
Moon 2:34 AM ICT (2/6) 2:22 PM ICT (2/6)
Length of Visible Light 12h 22m
Length of Day
11h 38m
Waning Crescent, 22% of the Moon is Illuminated
Feb 6
Waning Crescent
Feb 10
New
Feb 18
First Quarter
Feb 26
Full
Mar 5
Last Quarter

Hourly Weather History & Observations

Time (ICT) Temp. Heat Index Dew Point Humidity Pressure Visibility Wind Dir Wind Speed Gust Speed Precip Events Conditions
12:00 AM 82.4 °F 88.2 °F 73.4 °F 74% 29.95 in 1.2 mi SSW 4.6 mph - N/A   Mostly Cloudy
12:30 AM 82.4 °F 88.2 °F 73.4 °F 74% 29.95 in 1.2 mi South 6.9 mph - N/A   Mostly Cloudy
1:00 AM 82.4 °F 88.2 °F 73.4 °F 74% 29.95 in 1.2 mi SSW 4.6 mph - N/A   Mostly Cloudy
1:30 AM 82.4 °F 88.2 °F 73.4 °F 74% 29.95 in 1.2 mi South 6.9 mph - N/A   Mostly Cloudy
2:00 AM 80.6 °F 85.4 °F 73.4 °F 79% 29.95 in 1.2 mi SW 3.5 mph - N/A   Mostly Cloudy
2:30 AM 78.8 °F - 73.4 °F 83% 29.92 in 1.2 mi South 3.5 mph - N/A   Mostly Cloudy
3:00 AM 78.8 °F - 73.4 °F 83% 29.92 in 1.2 mi Calm Calm - N/A   Mostly Cloudy
3:30 AM 77.0 °F - 73.4 °F 89% 29.92 in 1.2 mi Calm Calm - N/A   Mostly Cloudy
4:00 AM 77.0 °F - 73.4 °F 89% 29.92 in 1.2 mi Calm Calm - N/A   Mostly Cloudy
4:30 AM 77.0 °F - 73.4 °F 89% 29.92 in 1.2 mi Calm Calm - N/A   Mostly Cloudy
5:00 AM 77.0 °F - 73.4 °F 89% 29.92 in 1.2 mi Calm Calm - N/A   Mostly Cloudy
5:30 AM 77.0 °F - 73.4 °F 89% 29.95 in 1.2 mi Calm Calm - N/A   Mostly Cloudy
6:00 AM 77.0 °F - 73.4 °F 89% 29.95 in 1.2 mi Calm Calm - N/A   Mostly Cloudy
6:30 AM 77.0 °F - 73.4 °F 89% 29.95 in 1.2 mi Calm Calm - N/A   Mostly Cloudy
7:00 AM 75.2 °F - 71.6 °F 89% 29.95 in 1.2 mi NNW 3.5 mph - N/A   Mostly Cloudy
7:30 AM 75.2 °F - 73.4 °F 94% 29.95 in 1.9 mi NNW 3.5 mph - N/A   Mostly Cloudy
8:00 AM 77.0 °F - 73.4 °F 89% 29.95 in 2.5 mi North 3.5 mph - N/A   Mostly Cloudy
8:30 AM 80.6 °F 86.2 °F 75.2 °F 84% 29.95 in 2.5 mi NW 3.5 mph - N/A   Mostly Cloudy
9:00 AM 82.4 °F 88.2 °F 73.4 °F 74% 29.95 in 2.5 mi SSW 6.9 mph - N/A   Mostly Cloudy
9:30 AM 84.2 °F 90.9 °F 73.4 °F 70% 29.95 in 3.1 mi South 4.6 mph - N/A   Mostly Cloudy
10:00 AM 86.0 °F 93.4 °F 73.4 °F 66% 29.95 in 3.7 mi SSW 6.9 mph - N/A   Scattered Clouds
10:30 AM 86.0 °F 93.4 °F 73.4 °F 66% 29.95 in 3.7 mi SSE 4.6 mph - N/A   Scattered Clouds
11:00 AM 87.8 °F 93.8 °F 71.6 °F 58% 29.95 in 3.7 mi South 4.6 mph - N/A   Mostly Cloudy
11:30 AM 86.0 °F 95.1 °F 75.2 °F 70% 29.92 in 3.7 mi SSW 4.6 mph - N/A   Mostly Cloudy
12:00 PM 86.0 °F 95.1 °F 75.2 °F 70% 29.92 in 3.7 mi SSW 9.2 mph - N/A   Mostly Cloudy
12:30 PM 87.8 °F 95.6 °F 73.4 °F 62% 29.89 in 3.7 mi South 9.2 mph - N/A   Mostly Cloudy
1:00 PM 87.8 °F 97.6 °F 75.2 °F 66% 29.89 in 3.7 mi South 6.9 mph - N/A   Mostly Cloudy
1:30 PM 86.0 °F 93.4 °F 73.4 °F 66% 29.86 in 3.7 mi South 9.2 mph - N/A   Mostly Cloudy
2:00 PM 87.8 °F 95.6 °F 73.4 °F 62% 29.83 in 3.7 mi South 9.2 mph - N/A   Mostly Cloudy
2:30 PM 87.8 °F 95.6 °F 73.4 °F 62% 29.83 in 3.7 mi South 9.2 mph - N/A   Mostly Cloudy
3:00 PM 87.8 °F 97.6 °F 75.2 °F 66% 29.80 in 3.7 mi SW 9.2 mph - N/A   Mostly Cloudy
3:30 PM 86.0 °F 93.4 °F 73.4 °F 66% 29.80 in 3.7 mi SSW 9.2 mph - N/A   Mostly Cloudy
4:00 PM 86.0 °F 95.1 °F 75.2 °F 70% 29.80 in 4.3 mi SSW 6.9 mph - N/A   Mostly Cloudy
4:30 PM 84.2 °F 90.9 °F 73.4 °F 70% 29.80 in 4.3 mi SSW 9.2 mph - N/A   Mostly Cloudy
5:00 PM 84.2 °F 92.3 °F 75.2 °F 74% 29.80 in 4.3 mi SSW 9.2 mph - N/A   Mostly Cloudy
5:30 PM 84.2 °F 90.9 °F 73.4 °F 70% 29.80 in 4.3 mi SSW 9.2 mph - N/A   Mostly Cloudy
6:00 PM 82.4 °F 88.2 °F 73.4 °F 74% 29.80 in 4.3 mi SSW 9.2 mph - N/A   Mostly Cloudy
6:30 PM 82.4 °F 88.2 °F 73.4 °F 74% 29.80 in 4.3 mi SSW 4.6 mph - N/A   Mostly Cloudy
7:00 PM 80.6 °F 85.4 °F 73.4 °F 79% 29.83 in 4.3 mi SSW 4.6 mph - N/A   Mostly Cloudy
7:30 PM 80.6 °F 85.4 °F 73.4 °F 79% 29.83 in 4.3 mi SSW 3.5 mph - N/A   Mostly Cloudy
8:00 PM 80.6 °F 85.4 °F 73.4 °F 79% 29.83 in 4.3 mi SSW 4.6 mph - N/A   Mostly Cloudy
8:30 PM 80.6 °F 85.4 °F 73.4 °F 79% 29.86 in 4.3 mi SSW 3.5 mph - N/A   Mostly Cloudy
9:00 PM 80.6 °F 85.4 °F 73.4 °F 79% 29.86 in 4.3 mi SSW 4.6 mph - N/A   Mostly Cloudy
9:30 PM 80.6 °F 85.4 °F 73.4 °F 79% 29.86 in 4.3 mi SSW 4.6 mph - N/A   Mostly Cloudy
10:00 PM 80.6 °F 85.4 °F 73.4 °F 79% 29.86 in 4.3 mi SSW 4.6 mph - N/A   Mostly Cloudy
11:00 PM 80.6 °F 85.4 °F 73.4 °F 79% 29.89 in 4.3 mi SSW 4.6 mph - N/A   Mostly Cloudy
11:30 PM 80.6 °F 86.2 °F 75.2 °F 84% 29.89 in 4.3 mi SSW 9.2 mph - N/A   Mostly Cloudy